Regional Weather Roundup
Issued by NWS San Angelo, TX

Home | Current Version | Previous Version | Text Only | Print | Product List | Glossary On
Versions: 1 2 3 4 5 6 7 8 9 10 11 12 13 14 15 16 17 18 19 20 21 22 23 24 25 26 27 28 29 30 31 32 33 34 35 36 37 38 39 40 41 42 43 44 45 46 47 48 49 50
000
ASUS44 KSJT 081411
RWRSJT
WEST CENTRAL TEXAS REGIONAL WEATHER ROUNDUP
NATIONAL WEATHER SERVICE SAN ANGELO TX
800 AM CST MON FEB 08 2016

NOTE: "FAIR" INDICATES FEW OR NO CLOUDS BELOW 12,000 FEET WITH NO
SIGNIFICANT WEATHER AND/OR OBSTRUCTIONS TO VISIBILITY.

TXZ049-054-064>066-071>073-076>078-098-099-113-114-127-128-139-140-
154-155-168>170-081500
...LOCATIONS ACROSS WEST CENTRAL TEXAS...

CITY           SKY/WX    TMP DP  RH WIND       PRES   REMARKS
SAN ANGELO     PTCLDY    33  15  47 W8        30.48R WCI  26
ABILENE        CLEAR     31  16  54 NW8       30.44R WCI  23
DYESS AFB      CLEAR     31  15  51 NW8       30.44R WCI  24
JUNCTION       CLOUDY    40  12  32 VRB3      30.44R
SWEETWATER     CLEAR     34  13  41 NW10      30.47R WCI  26
BROWNWOOD      CLOUDY    37  14  38 N9        30.43R WCI  31
COLEMAN        CLOUDY    38  15  39 N13       30.43R WCI  30
SONORA         CLOUDY    36  16  44 N9        30.49R WCI  29
OZONA          FAIR      34  18  51 N8        30.49R WCI  27
BRADY          NOT AVBL
$$

TEXAS PANHANDLE/OKLAHOMA PANHANDLE

CITY           SKY/WX    TMP DP  RH WIND       PRES   REMARKS
AMARILLO       CLOUDY    24  13  62 W14       30.43R WCI  12
BORGER         CLEAR     30  13  49 NW12G18   30.44R WCI  20
CANADIAN       CLEAR     32  12  43 NW13      30.41R WCI  23
DALHART        CLOUDY    21  13  71 NW12      30.45R WCI   9
DUMAS          CLOUDY    22  13  69 NW9       30.44R WCI  12
GUYMON         NOT AVBL
HEREFORD       NOT AVBL
PAMPA          SUNNY     29  15  55 NW17      30.41S WCI  17
PERRYTON       CLEAR     30  15  54 NW13      30.40R WCI  20
$$

SOUTHERN PANHANDLE/SOUTH PLAINS/ROLLING PLAINS

CITY           SKY/WX    TMP DP  RH WIND       PRES   REMARKS
LUBBOCK        CLOUDY    21  12  68 NW7       30.45S WCI  12
SNYDER           N/A     32  12  43 NW10      30.46R WCI  23
CHILDRESS      CLEAR     30  15  53 NW12      30.43R WCI  20
SEMINOLE       CLOUDY    25  15  65 NW8       30.51R WCI  16
$$

PERMIAN BASIN

CITY           SKY/WX    TMP DP  RH WIND       PRES   REMARKS
MIDLAND        CLOUDY    29  16  58 NW7       30.50R WCI  22
ODESSA         CLOUDY    29  14  53 N8        30.51R WCI  21
WINK           CLOUDY    26  15  63 W8        30.52R WCI  18
$$

FAR WEST/SOUTHWEST MOUNTAINS/TRANS PECOS

CITY           SKY/WX    TMP DP  RH WIND       PRES   REMARKS
ALPINE         CLOUDY    32  18  56 NE6       30.54R WCI  26
DRYDEN           N/A     43  18  36 N9        30.48R WCI  38
EL PASO        PTCLDY    39  18  42 SE8       30.41R WCI  33
FORT STOCKTON  CLOUDY    31  20  63 N6        30.52R WCI  25
GUADALUPE PASS CLOUDY    27  14  58 NE37      30.44R WCI   9
MARFA          CLOUDY    32  19  58 N20       30.45R WCI  20
PECOS          CLOUDY    30  18  60 NW5       30.54S WCI  25
$$

DALLAS/FORT WORTH METROPLEX

CITY           SKY/WX    TMP DP  RH WIND       PRES   REMARKS
DFW AIRPORT    PTCLDY    43  18  36 NW14G24   30.33R WCI  36
FTW MEACHAM    CLEAR     40  20  44 NW15      30.35R WCI  32
DAL-EXECUTIVE  CLEAR     42  18  37 NW16      30.32S WCI  34
GRAND PRAIRIE  CLEAR     45  21  39 NW8       30.36
ADDISON        CLEAR     43  19  39 NW10G21   30.33R WCI  37
MESQUITE       SUNNY     43  16  33 NW14      30.33R WCI  36
LANCASTER      SUNNY     42  16  34 NW10      30.34R WCI  36
$$

NORTH CENTRAL TEXAS

CITY           SKY/WX    TMP DP  RH WIND       PRES   REMARKS
SHRMAN/DENISON SUNNY     40  20  44 W9        30.32R WCI  34
GAINESVILLE    CLEAR     37  19  49 NW13      30.35R WCI  28
BRIDGEPORT     SUNNY     39  23  53 NW10      30.39S WCI  32
DENTON         CLEAR     37  20  50 NW12      30.34R WCI  29
WAXAHACHIE     SUNNY     41  21  44 NW10      30.34S WCI  35
GRANBURY       SUNNY     38  19  47 CALM      30.40R
$$

WESTERN NORTH TEXAS

CITY           SKY/WX    TMP DP  RH WIND       PRES   REMARKS
WICHITA FALLS  CLEAR     33  18  53 W14       30.39R WCI  23
VERNON           N/A     33  14  46 W13       30.42S WCI  24
BRECKENRIDGE   SUNNY     39  17  40 NW12G18   30.42R WCI  32
COMANCHE       CLOUDY    37  18  46 NW10      30.41R WCI  29
$$

CENTRAL AND SOUTH CENTRAL TEXAS

CITY           SKY/WX    TMP DP  RH WIND       PRES   REMARKS
AUSTIN/BERGSTM PTCLDY    47  19  33 N13       30.38R
WACO           CLEAR     40  20  44 NW10      30.37R WCI  33
HILLSBORO      SUNNY     32  22  65 W6        30.35S WCI  26
TEMPLE         PTCLDY    42  20  41 NW8       30.38R WCI  37
KILLEEN-GRAY   PTCLDY    41  18  39 N8        30.38R WCI  36
FORT HOOD      CLOUDY    42  18  37 NW12      30.37R WCI  36
GEORGETOWN     CLEAR     43  18  36 NW10      30.38R WCI  37
LAGO VISTA     FAIR      45  17  32 N10G17    30.38R WCI  39
SAN MARCOS     CLEAR     45  21  39 N16       30.38R WCI  37
NEW BRAUNFELS  PTCLDY    47  21  35 N12       30.35R
RANDOLPH AFB   CLOUDY    48  19  31 N14       30.36R
SAN ANTONIO    CLOUDY    48  27  44 N17G24    30.36R
STINSON        CLOUDY    51  20  29 N15G22    30.35R
PLEASANTON     NOT AVBL
LA GRANGE      CLEAR     47  29  50 N8        30.35R
GIDDINGS       SUNNY     45  25  45 N7        30.40R
$$

EAST TEXAS

CITY           SKY/WX    TMP DP  RH WIND       PRES   REMARKS
PARIS          CLEAR     41  16  36 NW15G23   30.24S WCI  33
CLARKSVILLE    NOT AVBL
TYLER          CLEAR     45  18  34 NW13      30.27R WCI  39
LONGVIEW       CLEAR     45  19  35 NW18      30.23R WCI  37
PALESTINE      SUNNY     43  22  43 NW5       30.31S
NACOGDOCHES    CLEAR     43  23  45 NW10      30.25R WCI  37
$$

TEXAS HILL COUNTRY AND EDWARDS PLATEAU

CITY           SKY/WX    TMP DP  RH WIND       PRES   REMARKS
LLANO          CLOUDY    43  16  33 N10       30.45R WCI  37
HORSESHOE BAY  FAIR      44  22  41 NW7       30.41R WCI  40
KERRVILLE      CLOUDY    41  20  43 N10       30.39R WCI  35
FREDERICKSBRG  CLOUDY    41  15  35 N9        30.40R WCI  35
ROCKSPRINGS    CLOUDY    39  14  35 N10G16    30.42R WCI  32
HONDO          PTCLDY    47  20  34 N12       30.39R
UVALDE         MOSUNNY   49  21  33 N13G20    30.38R
DEL RIO        PTCLDY    47  25  42 NW10      30.45R
$$

SOUTHEAST TEXAS

CITY           SKY/WX    TMP DP  RH WIND       PRES   REMARKS
COLLEGE STN    CLEAR     45  23  42 NW12      30.35R WCI  39
CALDWELL       SUNNY     45  21  39 NW13      30.39R WCI  38
CROCKETT       MOSUNNY   41  25  52 NW5       30.33S WCI  38
BRENHAM        CLEAR     45  30  56 NW10      30.36R WCI  40
HUNTSVILLE     CLEAR     44  25  47 NW7       30.32R
CONROE         PTCLDY    47  22  37 NW10      30.32R
HOUSTON BUSH   PTCLDY    48  27  44 N10       30.32R
HOUSTON HOBBY  MOSUNNY   50  29  44 N14       30.31R
PERLAND        SUNNY     50  31  48 N12       30.32R
WHARTON        SUNNY     46  34  62 N15G23    30.34R WCI  40
$$

THE UPPER TEXAS COAST

CITY           SKY/WX    TMP DP  RH WIND       PRES   REMARKS
ORANGE         SUNNY     46  32  56 NW7       30.28R
PORT ARTHUR    SUNNY     45  37  73 NW10      30.27R WCI  40
GALVESTON      SUNNY     52  38  58 N22       30.29R
ANGLETON       SUNNY     49  38  65 N12       30.30R
BAY CITY       CLOUDY    49  38  65 N12G18    30.31R
$$

TEXAS COASTAL BEND, RIO GRANDE PLAINS DEEP SOUTH TEXAS

CITY           SKY/WX    TMP DP  RH WIND       PRES   REMARKS
VICTORIA       CLOUDY    43  39  86 N12       30.33R WCI  37
BEEVILLE       FAIR      49  35  58 N15G28    30.31R
ROCKPORT       PTCLDY    49  44  83 N10       30.30R
PORT ARANSAS   MOSUNNY   49  45  85 N16       30.29R
PORT LAVACA    CLOUDY    47  40  77 N15       30.31R
CORPUS CHRISTI CLOUDY    49  38  65 N15       30.29R
KINGSVILLE NAS CLOUDY    49  41  74 N14       30.30R
COTULLA        PTCLDY    49  29  46 NE14      30.34R
LAREDO         PTCLDY    51  29  42 N13       30.34R
BROWNSVILLE    CLOUDY    53  52  96 CALM      30.25R
PORT ISABEL    CLOUDY    56  55  97 NE5       30.24R
HEBBRONVILLE   NOT AVBL
MCALLEN        CLEAR     53  45  74 N12       30.28R
WESLACO        PTCLDY    48  44  86 N5        30.26R
FALFURRIAS     MOSUNNY   49  40  70 N7        30.29R
EDINBURG       MOSUNNY   48  43  82 N10       30.29R
$$



USA.gov is the U.S. government's official web portal to all federal, state and local government web resources and services.